When you browse on this site, cookies collect data to enhance your experience and personalize the content and advertising you see.
Visit our Privacy Policy to learn more. By continuing to use the site, you agree to this use of cookies and data.
  • Em Portugal
  • Lista de países
  • Para 7 dias
  • Temperatura da água
  • Mapas de satélite
  • Mapa do tempo
  • Widgets de tempo
  • user-avatar
    Iniciar Sessão

    Previsão horária em Canillo

    Hoje, 17 Janeiro, Quinta-feira

    Tempo Temperatura Precipitação Vento Pressão Humidade
    00:00 -3°C° 0 mm 0 m/s 613 mmHg 67%
    01:00 -3°C° 0 mm 0 m/s 613 mmHg 68%
    02:00 -2°C° 0 mm 1 m/s 613 mmHg 68%
    03:00 -2°C° 0 mm 1 m/s 612 mmHg 69%
    04:00 -2°C° 0 mm 1 m/s 612 mmHg 72%
    05:00 -2°C° 0 mm 1 m/s 612 mmHg 75%
    06:00 -2°C° 0 mm 1 m/s 612 mmHg 78%
    07:00 -1°C° 0 mm 1 m/s 613 mmHg 78%
    08:00 0°C° 0 mm 1 m/s 613 mmHg 78%
    09:00 -2°C° 0 mm 2 m/s 614 mmHg 78%
    10:00 -1°C° 0.4 mm 2 m/s 614 mmHg 78%
    11:00 -1°C° 0.4 mm 2 m/s 614 mmHg 78%
    12:00 +1°C° 0.4 mm 2 m/s 615 mmHg 78%
    13:00 -1°C° 0.2 mm 2 m/s 614 mmHg 79%
    14:00 -1°C° 0.2 mm 2 m/s 614 mmHg 80%
    15:00 -2°C° 0.2 mm 2 m/s 614 mmHg 80%
    16:00 -3°C° 0.1 mm 2 m/s 614 mmHg 83%
    17:00 -4°C° 0.1 mm 2 m/s 613 mmHg 86%
    18:00 -3°C° 0.1 mm 1 m/s 613 mmHg 89%
    19:00 -5°C° 0 mm 2 m/s 613 mmHg 89%
    20:00 -6°C° 0 mm 2 m/s 613 mmHg 89%
    21:00 -6°C° 0 mm 2 m/s 614 mmHg 88%
    22:00 -6°C° 0 mm 2 m/s 614 mmHg 89%
    23:00 -6°C° 0 mm 2 m/s 614 mmHg 89%

    Amanhã, 18 Janeiro, Sexta-feira

    Tempo Temperatura Precipitação Vento Pressão Humidade
    00:00 -6°C° 0 mm 2 m/s 614 mmHg 89%
    01:00 -7°C° 0 mm 2 m/s 613 mmHg 89%
    02:00 -7°C° 0 mm 2 m/s 613 mmHg 90%
    03:00 -7°C° 0 mm 2 m/s 613 mmHg 90%
    04:00 -8°C° 0 mm 2 m/s 613 mmHg 88%
    05:00 -8°C° 0 mm 2 m/s 612 mmHg 86%
    06:00 -8°C° 0 mm 2 m/s 612 mmHg 85%
    07:00 -7°C° 0 mm 2 m/s 613 mmHg 82%
    08:00 -6°C° 0 mm 2 m/s 614 mmHg 79%
    09:00 -3°C° 0 mm 1 m/s 614 mmHg 77%
    10:00 -3°C° 0 mm 2 m/s 614 mmHg 70%
    11:00 -2°C° 0 mm 2 m/s 615 mmHg 64%
    12:00 -1°C° 0 mm 2 m/s 615 mmHg 57%
    13:00 -1°C° 0 mm 2 m/s 615 mmHg 60%
    14:00 -1°C° 0 mm 2 m/s 614 mmHg 62%
    15:00 -2°C° 0 mm 2 m/s 614 mmHg 65%
    16:00 -1°C° 0 mm 1 m/s 613 mmHg 71%
    17:00 -2°C° 0 mm 1 m/s 613 mmHg 78%
    18:00 -4°C° 0 mm 0 m/s 613 mmHg 84%
    19:00 -4°C° 0 mm 0 m/s 613 mmHg 83%
    20:00 -4°C° 0 mm 0 m/s 613 mmHg 81%
    21:00 -4°C° 0 mm 0 m/s 613 mmHg 80%
    22:00 -4°C° 0 mm 0 m/s 613 mmHg 80%
    23:00 -4°C° 0 mm 0 m/s 613 mmHg 80%

    Depois de amanhã, 19 Janeiro, Sábado

    Tempo Temperatura Precipitação Vento Pressão Humidade
    00:00 -4°C° 0 mm 0 m/s 613 mmHg 80%
    01:00 -4°C° 0 mm 0 m/s 613 mmHg 81%
    02:00 -5°C° 0 mm 0 m/s 612 mmHg 82%
    03:00 -4°C° 0 mm 1 m/s 612 mmHg 83%
    04:00 -4°C° 0 mm 1 m/s 612 mmHg 81%
    05:00 -4°C° 0 mm 1 m/s 611 mmHg 80%
    06:00 -4°C° 0 mm 1 m/s 611 mmHg 79%
    07:00 -3°C° 0 mm 1 m/s 612 mmHg 74%
    08:00 -2°C° 0 mm 1 m/s 612 mmHg 70%
    09:00 -1°C° 0 mm 1 m/s 612 mmHg 65%
    10:00 0°C° 0 mm 1 m/s 612 mmHg 62%
    11:00 +1°C° 0 mm 2 m/s 613 mmHg 58%
    12:00 +2°C° 0 mm 2 m/s 613 mmHg 54%
    13:00 +2°C° 0 mm 2 m/s 612 mmHg 57%
    14:00 +2°C° 0 mm 2 m/s 611 mmHg 59%
    15:00 +2°C° 0 mm 2 m/s 611 mmHg 62%
    16:00 -1°C° 0 mm 2 m/s 610 mmHg 70%
    17:00 -2°C° 0 mm 2 m/s 609 mmHg 78%
    18:00 -2°C° 0 mm 1 m/s 609 mmHg 86%
    19:00 -2°C° 0 mm 1 m/s 609 mmHg 86%
    20:00 -2°C° 0 mm 1 m/s 609 mmHg 86%
    21:00 -1°C° 0 mm 1 m/s 609 mmHg 86%
    22:00 -1°C° 0 mm 1 m/s 609 mmHg 85%
    23:00 -1°C° 0 mm 1 m/s 609 mmHg 84%

    20 Janeiro, Domingo

    Tempo Temperatura Precipitação Vento Pressão Humidade
    00:00 -1°C° 0 mm 1 m/s 609 mmHg 83%
    01:00 -1°C° 0 mm 1 m/s 609 mmHg 85%
    02:00 -1°C° 0 mm 1 m/s 609 mmHg 86%
    03:00 -4°C° 0 mm 2 m/s 610 mmHg 88%
    04:00 -4°C° 0.2 mm 2 m/s 610 mmHg 88%
    05:00 -3°C° 0.2 mm 2 m/s 610 mmHg 88%
    06:00 -3°C° 0.2 mm 2 m/s 610 mmHg 88%
    07:00 -4°C° 0.2 mm 3 m/s 611 mmHg 87%
    08:00 -4°C° 0.2 mm 3 m/s 612 mmHg 86%
    09:00 -4°C° 0.2 mm 3 m/s 613 mmHg 85%
    10:00 -2°C° 0.1 mm 3 m/s 613 mmHg 80%
    11:00 -2°C° 0.1 mm 3 m/s 613 mmHg 75%
    12:00 -2°C° 0.1 mm 4 m/s 614 mmHg 71%
    13:00 -2°C° 0 mm 3 m/s 613 mmHg 70%
    14:00 -2°C° 0 mm 3 m/s 613 mmHg 69%
    15:00 -2°C° 0 mm 3 m/s 613 mmHg 68%
    16:00 -4°C° 0 mm 3 m/s 613 mmHg 74%
    17:00 -5°C° 0 mm 2 m/s 613 mmHg 80%
    18:00 -6°C° 0 mm 2 m/s 612 mmHg 86%
    19:00 -6°C° 0 mm 2 m/s 613 mmHg 84%
    20:00 -6°C° 0 mm 2 m/s 613 mmHg 83%
    21:00 -5°C° 0 mm 2 m/s 614 mmHg 81%
    22:00 -5°C° 0.1 mm 2 m/s 614 mmHg 84%
    23:00 -5°C° 0.1 mm 2 m/s 614 mmHg 87%

    21 Janeiro, Segunda-feira

    Tempo Temperatura Precipitação Vento Pressão Humidade
    00:00 -5°C° 0.1 mm 2 m/s 614 mmHg 89%
    01:00 -5°C° 0.2 mm 2 m/s 614 mmHg 89%
    02:00 -5°C° 0.2 mm 2 m/s 614 mmHg 89%
    03:00 -5°C° 0.2 mm 2 m/s 614 mmHg 90%
    04:00 -5°C° 0.1 mm 2 m/s 614 mmHg 89%
    05:00 -5°C° 0.1 mm 2 m/s 614 mmHg 89%
    06:00 -6°C° 0.1 mm 2 m/s 614 mmHg 88%
    07:00 -5°C° 0.3 mm 2 m/s 614 mmHg 87%
    08:00 -5°C° 0.3 mm 2 m/s 615 mmHg 85%
    09:00 -5°C° 0.3 mm 3 m/s 615 mmHg 83%
    10:00 -5°C° 0.2 mm 3 m/s 615 mmHg 80%
    11:00 -4°C° 0.2 mm 3 m/s 615 mmHg 78%
    12:00 -4°C° 0.2 mm 4 m/s 616 mmHg 75%
    13:00 -5°C° 0.1 mm 4 m/s 615 mmHg 74%
    14:00 -5°C° 0.1 mm 4 m/s 615 mmHg 74%
    15:00 -7°C° 0.1 mm 4 m/s 615 mmHg 73%
    16:00 -8°C° 0.1 mm 4 m/s 614 mmHg 77%
    17:00 -8°C° 0.1 mm 3 m/s 614 mmHg 81%
    18:00 -9°C° 0.1 mm 3 m/s 614 mmHg 85%
    19:00 -9°C° 0 mm 3 m/s 614 mmHg 85%
    20:00 -9°C° 0 mm 3 m/s 614 mmHg 85%
    21:00 -10°C° 0 mm 3 m/s 615 mmHg 86%
    22:00 -10°C° 0 mm 3 m/s 614 mmHg 85%
    23:00 -10°C° 0 mm 3 m/s 614 mmHg 85%

    22 Janeiro, Terça-feira

    Tempo Temperatura Precipitação Vento Pressão Humidade
    00:00 -10°C° 0 mm 3 m/s 614 mmHg 85%
    01:00 -12°C° 0 mm 3 m/s 613 mmHg 85%
    02:00 -12°C° 0 mm 3 m/s 613 mmHg 86%
    03:00 -12°C° 0 mm 2 m/s 612 mmHg 86%
    04:00 -12°C° 0 mm 2 m/s 612 mmHg 84%
    05:00 -12°C° 0 mm 2 m/s 611 mmHg 81%
    06:00 -12°C° 0 mm 2 m/s 611 mmHg 79%
    07:00 -10°C° 0 mm 2 m/s 611 mmHg 73%
    08:00 -8°C° 0 mm 2 m/s 611 mmHg 67%
    09:00 -6°C° 0 mm 1 m/s 611 mmHg 62%
    10:00 -5°C° 0 mm 2 m/s 611 mmHg 59%
    11:00 -4°C° 0 mm 2 m/s 611 mmHg 56%
    12:00 -2°C° 0 mm 2 m/s 610 mmHg 53%
    13:00 -3°C° 0.4 mm 2 m/s 609 mmHg 63%
    14:00 -4°C° 0.4 mm 2 m/s 607 mmHg 72%
    15:00 -3°C° 0.4 mm 1 m/s 606 mmHg 82%
    16:00 -4°C° 0.6 mm 1 m/s 605 mmHg 86%
    17:00 -4°C° 0.6 mm 1 m/s 604 mmHg 90%
    18:00 -4°C° 0.6 mm 1 m/s 604 mmHg 94%
    19:00 -6°C° 0.8 mm 2 m/s 603 mmHg 94%
    20:00 -6°C° 0.8 mm 2 m/s 603 mmHg 93%
    21:00 -6°C° 0.8 mm 2 m/s 603 mmHg 93%
    22:00 -7°C° 0.3 mm 2 m/s 602 mmHg 92%
    23:00 -8°C° 0.3 mm 2 m/s 601 mmHg 90%
    Mostrar mais